This is the latest recevied weather packets stored in our database for station/object K2ATL. If no packets are shown the sender has not sent any weather packets the latest 10 day(s).
| Time | Temp. | Humidity | Pressure | Rain* | Wind** | Luminosity | Snow |
|---|---|---|---|---|---|---|---|
| 1787519942 | 28.33° C | 41% | 1102 hPa | 0 mm | - | 537 W/m² | - |
| 1787519637 | 27.78° C | 48% | 1101.9 hPa | 0 mm | - | 557 W/m² | - |
| 1787519337 | 28.33° C | 45% | 1101.8 hPa | 0 mm | - | 577 W/m² | - |
| 1787519032 | 27.22° C | 51% | 1101.7 hPa | 0 mm | - | 595 W/m² | - |
| 1787518727 | 27.22° C | 51% | 1101.8 hPa | 0 mm | - | 605 W/m² | - |
| 1787518423 | 27.78° C | 49% | 1101.7 hPa | 0 mm | - | 628 W/m² | - |
| 1787518117 | 28.89° C | 45% | 1101.7 hPa | 0 mm | - | 644 W/m² | - |
| 1787517814 | 28.89° C | 45% | 1101.7 hPa | 0 mm | - | 659 W/m² | - |
| 1787517510 | 28.89° C | 47% | 1101.6 hPa | 0 mm | - | 675 W/m² | - |
| 1787517206 | 28.33° C | 51% | 1101.6 hPa | 0 mm | - | 692 W/m² | - |
| 1787516904 | 27.78° C | 51% | 1101.7 hPa | 0 mm | - | 707 W/m² | - |
| 1787516601 | 27.78° C | 56% | 1101.7 hPa | 0 mm | - | 726 W/m² | - |
| 1787516300 | 28.89° C | 51% | 1101.7 hPa | 0 mm | - | 735 W/m² | - |
| 1787515995 | 29.44° C | 58% | 1101.7 hPa | 0 mm | - | 752 W/m² | - |
| 1787515692 | 28.33° C | 48% | 1101.8 hPa | 0 mm | - | 762 W/m² | - |
| 1787515387 | 28.33° C | 56% | 1102 hPa | 0 mm | - | 776 W/m² | - |
| 1787515087 | 27.78° C | 55% | 1101.8 hPa | 0 mm | - | 785 W/m² | - |
| 1787514784 | 28.89° C | 52% | 1101.8 hPa | 0 mm | - | 802 W/m² | - |
| 1787514479 | 29.44° C | 49% | 1101.9 hPa | 0 mm | - | 811 W/m² | - |
| 1787514175 | 28.33° C | 50% | 1101.9 hPa | 0 mm | - | 825 W/m² | - |
| 1787513870 | 28.89° C | 52% | 1102 hPa | 0 mm | - | 834 W/m² | - |
| 1787513570 | 29.44° C | 46% | 1102.1 hPa | 0 mm | - | 841 W/m² | - |
| 1787513266 | 28.89° C | 49% | 1102.1 hPa | 0 mm | - | 850 W/m² | - |
| 1787512962 | 27.22° C | 52% | 1102.2 hPa | 0 mm | - | 856 W/m² | - |
| 1787512658 | 27.22° C | 59% | 1102.2 hPa | 0 mm | - | 865 W/m² | - |
* Rain latest hour (hover to see other rain measurements)
** Current wind speed in m/s (hover to see current wind gust speed)